TimeMST,TemperatureF,Dew PointF,Humidity,Sea Level PressureIn,VisibilityMPH,Wind Direction,Wind SpeedMPH,Gust SpeedMPH,PrecipitationIn,Events,Conditions,WindDirDegrees,DateUTC
12:15 AM,35.6,21.7,57,30.06,10.0,West,4.6,-,N/A,,Clear,280,2012-11-30 07:15:00
12:35 AM,36.1,22.1,57,30.06,10.0,West,3.5,-,N/A,,Clear,270,2012-11-30 07:35:00
12:55 AM,38.3,21.7,51,30.06,10.0,West,3.5,-,N/A,,Clear,270,2012-11-30 07:55:00
1:15 AM,36.7,21.4,54,30.06,10.0,WNW,5.8,-,N/A,,Clear,290,2012-11-30 08:15:00
1:35 AM,39.0,22.1,51,30.06,10.0,West,3.5,-,N/A,,Clear,280,2012-11-30 08:35:00
1:55 AM,39.4,21.9,50,30.07,10.0,West,3.5,-,N/A,,Clear,270,2012-11-30 08:55:00
2:15 AM,36.0,21.7,56,30.08,10.0,West,4.6,-,N/A,,Clear,280,2012-11-30 09:15:00
2:35 AM,30.0,21.6,71,30.07,10.0,WNW,6.9,-,N/A,,Clear,290,2012-11-30 09:35:00
2:55 AM,33.1,22.8,66,30.07,10.0,West,4.6,-,N/A,,Clear,260,2012-11-30 09:55:00
3:15 AM,39.0,22.8,52,30.06,10.0,Calm,Calm,-,N/A,,Clear,0,2012-11-30 10:15:00
3:35 AM,40.6,22.6,49,30.06,10.0,Calm,Calm,-,N/A,,Clear,0,2012-11-30 10:35:00
3:55 AM,40.1,22.1,49,30.05,10.0,Calm,Calm,-,N/A,,Clear,0,2012-11-30 10:55:00
4:15 AM,39.9,22.6,50,30.05,10.0,Calm,Calm,-,N/A,,Clear,0,2012-11-30 11:15:00
4:35 AM,28.6,21.6,75,30.05,10.0,WSW,3.5,-,N/A,,Clear,250,2012-11-30 11:35:00
5:15 AM,27.7,22.5,81,30.05,10.0,West,9.2,-,N/A,,Clear,270,2012-11-30 12:15:00
5:35 AM,30.2,22.6,73,30.04,10.0,West,6.9,-,N/A,,Clear,270,2012-11-30 12:35:00
5:55 AM,29.5,21.6,72,30.05,10.0,West,9.2,-,N/A,,Clear,280,2012-11-30 12:55:00
6:15 AM,30.6,21.2,68,30.05,10.0,West,6.9,-,N/A,,Clear,260,2012-11-30 13:15:00
6:35 AM,28.4,20.8,73,30.06,10.0,WSW,5.8,-,N/A,,Clear,250,2012-11-30 13:35:00
6:55 AM,27.3,20.3,75,30.05,10.0,WSW,6.9,-,N/A,,Clear,250,2012-11-30 13:55:00
7:15 AM,27.9,20.8,75,30.05,10.0,West,5.8,-,N/A,,Clear,280,2012-11-30 14:15:00
7:35 AM,29.1,21.9,74,30.05,10.0,West,8.1,-,N/A,,Clear,280,2012-11-30 14:35:00
7:55 AM,31.1,22.5,70,30.05,10.0,WNW,5.8,-,N/A,,Clear,290,2012-11-30 14:55:00
8:15 AM,33.4,24.4,70,30.04,10.0,West,3.5,-,N/A,,Clear,260,2012-11-30 15:15:00
8:35 AM,34.9,24.4,66,30.05,10.0,West,3.5,-,N/A,,Clear,280,2012-11-30 15:35:00
8:55 AM,38.7,23.5,55,30.04,10.0,West,8.1,-,N/A,,Clear,260,2012-11-30 15:55:00
9:15 AM,41.2,23.0,48,30.05,10.0,West,8.1,-,N/A,,Clear,260,2012-11-30 16:15:00
9:35 AM,43.3,23.2,45,30.04,10.0,WSW,8.1,-,N/A,,Clear,250,2012-11-30 16:35:00
9:55 AM,44.6,23.2,43,30.03,10.0,West,5.8,-,N/A,,Clear,260,2012-11-30 16:55:00
10:15 AM,46.6,23.2,40,30.03,10.0,West,4.6,-,N/A,,Clear,260,2012-11-30 17:15:00
10:35 AM,48.2,23.2,37,30.02,10.0,Calm,Calm,-,N/A,,Clear,0,2012-11-30 17:35:00
10:55 AM,52.2,23.0,32,30.00,10.0,WSW,4.6,-,N/A,,Clear,240,2012-11-30 17:55:00
11:15 AM,55.0,21.9,28,29.98,10.0,SW,5.8,-,N/A,,Clear,230,2012-11-30 18:15:00
11:35 AM,56.3,21.6,26,29.97,10.0,West,4.6,-,N/A,,Clear,270,2012-11-30 18:35:00
11:55 AM,56.1,20.3,25,29.96,10.0,Calm,Calm,-,N/A,,Clear,0,2012-11-30 18:55:00
12:15 PM,58.5,20.8,23,29.94,10.0,SSW,3.5,-,N/A,,Clear,210,2012-11-30 19:15:00
12:35 PM,59.0,19.6,22,29.91,10.0,SSW,4.6,-,N/A,,Clear,200,2012-11-30 19:35:00
12:55 PM,59.0,19.9,22,29.92,10.0,South,4.6,-,N/A,,Clear,170,2012-11-30 19:55:00
1:15 PM,60.1,20.1,21,29.91,10.0,Calm,Calm,-,N/A,,Clear,0,2012-11-30 20:15:00
1:35 PM,60.3,20.3,21,29.89,10.0,SSE,3.5,-,N/A,,Clear,150,2012-11-30 20:35:00
1:55 PM,59.7,20.3,22,29.88,10.0,ESE,3.5,-,N/A,,Clear,110,2012-11-30 20:55:00
2:15 PM,59.9,19.8,21,29.88,10.0,SE,3.5,-,N/A,,Clear,130,2012-11-30 21:15:00
2:35 PM,59.0,19.8,22,29.88,10.0,SSE,4.6,-,N/A,,Clear,150,2012-11-30 21:35:00
2:55 PM,57.4,20.8,24,29.88,10.0,Calm,Calm,-,N/A,,Clear,0,2012-11-30 21:55:00
3:15 PM,57.2,21.0,25,29.87,10.0,Calm,Calm,-,N/A,,Clear,0,2012-11-30 22:15:00
3:35 PM,54.9,21.4,27,29.87,10.0,ENE,4.6,-,N/A,,Clear,60,2012-11-30 22:35:00
3:55 PM,52.7,21.0,29,29.87,10.0,Calm,Calm,-,N/A,,Clear,0,2012-11-30 22:55:00
4:15 PM,50.2,20.3,31,29.87,5.0,NE,5.8,-,N/A,,Haze,40,2012-11-30 23:15:00
4:35 PM,49.3,20.3,32,29.85,10.0,NE,6.9,-,N/A,,Clear,40,2012-11-30 23:35:00
4:55 PM,46.8,19.8,34,29.85,10.0,NE,6.9,-,N/A,,Clear,40,2012-11-30 23:55:00
5:15 PM,48.9,19.6,31,29.84,10.0,East,5.8,-,N/A,,Clear,80,2012-12-01 00:15:00
5:35 PM,48.9,18.3,30,29.84,10.0,ENE,5.8,-,N/A,,Clear,70,2012-12-01 00:35:00
5:55 PM,47.8,18.3,31,29.84,10.0,NE,4.6,-,N/A,,Clear,50,2012-12-01 00:55:00
6:15 PM,45.5,19.0,35,29.84,10.0,NE,8.1,-,N/A,,Clear,40,2012-12-01 01:15:00
6:35 PM,44.6,19.4,37,29.84,10.0,North,11.5,-,N/A,,Clear,10,2012-12-01 01:35:00
6:55 PM,44.6,18.5,35,29.84,10.0,NNE,6.9,-,N/A,,Clear,30,2012-12-01 01:55:00
7:15 PM,44.1,18.5,36,29.84,10.0,North,11.5,-,N/A,,Clear,10,2012-12-01 02:15:00
7:35 PM,44.1,18.5,36,29.84,10.0,NNE,9.2,-,N/A,,Clear,20,2012-12-01 02:35:00
7:55 PM,43.3,18.7,37,29.84,10.0,NNE,9.2,-,N/A,,Clear,30,2012-12-01 02:55:00
8:15 PM,39.2,19.6,45,29.83,10.0,NE,8.1,-,N/A,,Clear,40,2012-12-01 03:15:00
8:35 PM,41.5,19.4,41,29.84,10.0,ENE,8.1,-,N/A,,Clear,70,2012-12-01 03:35:00
8:55 PM,39.0,19.9,46,29.84,10.0,NE,8.1,-,N/A,,Clear,40,2012-12-01 03:55:00
9:15 PM,38.3,19.6,47,29.83,10.0,NE,3.5,-,N/A,,Clear,50,2012-12-01 04:15:00
9:35 PM,38.3,20.1,48,29.83,10.0,East,4.6,-,N/A,,Clear,80,2012-12-01 04:35:00
9:55 PM,39.4,21.2,48,29.83,10.0,NNE,6.9,-,N/A,,Clear,30,2012-12-01 04:55:00
10:15 PM,39.0,21.2,49,29.82,10.0,NNE,6.9,-,N/A,,Clear,30,2012-12-01 05:15:00
10:35 PM,37.4,20.8,51,29.82,10.0,Calm,Calm,-,N/A,,Clear,0,2012-12-01 05:35:00
10:55 PM,38.5,21.0,50,29.81,10.0,Calm,Calm,-,N/A,,Clear,0,2012-12-01 05:55:00
11:15 PM,35.1,21.0,57,29.82,10.0,West,6.9,-,N/A,,Clear,280,2012-12-01 06:15:00
11:35 PM,32.2,21.4,64,29.82,10.0,West,4.6,-,N/A,,Clear,280,2012-12-01 06:35:00
11:55 PM,33.6,21.6,61,29.81,10.0,WNW,5.8,-,N/A,,Clear,290,2012-12-01 06:55:00